Driggs, ID

11:54 AM MDT on October 19, 2019 (GMT -0600)
Driggs

Weather History for KDIJ - September, 2019

Change the Weather History Date:

Saturday, September 21, 2019

  Actual Average (WUND) Record (WUND)
Temperature  
Mean Temperature 42 °F -  
Max Temperature 50 °F - - (-1)
Min Temperature 37 °F - - (-1)
Degree Days  
Heating Degree Days 22    
Moisture  
Dew Point 38 °F    
Average Humidity 86    
Maximum Humidity 97    
Minimum Humidity 66    
Precipitation  
Precipitation 0.09 in - - ()
Sea Level Pressure  
Sea Level Pressure 30.17 in    
Wind  
Wind Speed 6 mph (SE)    
Max Wind Speed 13 mph    
Max Gust Speed -    
Visibility 10 miles    
Events Rain    
Averages and records for this station are not official NWS values.
T = Trace of Precipitation, MM = Missing Value Source: NWS Daily Summary

Daily Weather History Graph

Daily Weather History Graph

Search for Another Location

Airport or City:

Astronomy

Sep. 21, 2019 Rise Set
Actual Time 7:10 AM MDT 7:23 PM MDT
Civil Twilight 6:41 AM MDT 7:52 PM MDT
Nautical Twilight 6:07 AM MDT 8:26 PM MDT
Astronomical Twilight 5:33 AM MDT 9:00 PM MDT
Moon 11:52 PM MDT (9/21) 2:32 PM MDT (9/21)
Length of Visible Light 13h 10m
Length of Day
12h 13m
Waning Gibbous, 54% of the Moon is Illuminated
Sep 21
Waning Gibbous
Sep 21
Last Quarter
Sep 28
New
Oct 5
First Quarter
Oct 13
Full

Hourly Weather History & Observations

Time (MDT) Temp. Windchill Dew Point Humidity Pressure Visibility Wind Dir Wind Speed Gust Speed Precip Events Conditions
12:15 AM 37.4 °F 32.1 °F 35.6 °F 93% 30.13 in 10.0 mi SSE 6.9 mph - 0.00 in Rain Light Rain
12:50 AM 37.4 °F 32.8 °F 35.6 °F 93% 30.13 in 10.0 mi SSE 5.8 mph - 0.01 in   Overcast
12:56 AM 37.0 °F 32.4 °F 36.0 °F 96% 30.14 in 10.0 mi SSE 5.8 mph - 0.01 in   Overcast
1:54 AM 37.4 °F 32.8 °F 35.6 °F 93% 30.14 in 10.0 mi South 5.8 mph - 0.00 in   Overcast
1:56 AM 37.9 °F 32.7 °F 36.0 °F 93% 30.14 in 10.0 mi South 6.9 mph - 0.00 in   Overcast
2:56 AM 37.9 °F - 37.0 °F 97% 30.15 in 10.0 mi Calm Calm - N/A   Overcast
3:56 AM 39.0 °F 35.7 °F 37.0 °F 93% 30.15 in 10.0 mi SE 4.6 mph - N/A   Overcast
4:56 AM 39.0 °F - 37.0 °F 93% 30.15 in 10.0 mi Calm Calm - N/A   Overcast
5:56 AM 39.0 °F - 36.0 °F 89% 30.17 in 10.0 mi Calm Calm - 0.00 in   Overcast
6:56 AM 39.0 °F 36.8 °F 37.9 °F 96% 30.18 in 10.0 mi SE 3.5 mph - 0.00 in Rain Light Rain
7:33 AM 39.2 °F 35.0 °F 37.4 °F 93% 30.17 in 10.0 mi SSE 5.8 mph - 0.00 in   Overcast
7:56 AM 39.9 °F 36.7 °F 37.9 °F 93% 30.18 in 10.0 mi SE 4.6 mph - 0.00 in   Overcast
8:51 AM 41.0 °F 38.0 °F 39.2 °F 93% 30.20 in 10.0 mi ENE 4.6 mph - N/A   Overcast
8:56 AM 42.1 °F 40.2 °F 39.0 °F 89% 30.19 in 10.0 mi ENE 3.5 mph - N/A   Overcast
9:56 AM 43.0 °F - 39.0 °F 86% 30.22 in 10.0 mi Calm Calm - N/A   Overcast
10:38 AM 42.8 °F 41.1 °F 39.2 °F 87% 30.22 in 10.0 mi ENE 3.5 mph - 0.00 in Rain Light Rain
10:56 AM 44.1 °F 42.5 °F 39.0 °F 82% 30.22 in 10.0 mi Variable 3.5 mph - 0.00 in   Overcast
11:40 AM 46.4 °F 43.5 °F 41.0 °F 81% 30.21 in 10.0 mi SSE 5.8 mph - N/A   Mostly Cloudy
11:56 AM 48.0 °F - 39.9 °F 74% 30.19 in 10.0 mi SSE 4.6 mph - N/A   Mostly Cloudy
12:32 PM 48.2 °F - 37.4 °F 66% 30.20 in 10.0 mi Variable 4.6 mph - N/A   Mostly Cloudy
12:56 PM 48.0 °F - 37.9 °F 68% 30.18 in 10.0 mi WSW 6.9 mph - 0.00 in Rain Light Rain
1:56 PM 45.0 °F 38.9 °F 41.0 °F 86% 30.18 in 10.0 mi East 12.7 mph - 0.05 in Rain Light Rain
2:56 PM 46.0 °F 40.6 °F 39.9 °F 79% 30.18 in 10.0 mi ENE 11.5 mph - 0.00 in   Overcast
3:56 PM 45.0 °F 40.6 °F 39.9 °F 82% 30.17 in 10.0 mi ENE 8.1 mph - 0.00 in Rain Light Rain
4:56 PM 46.0 °F 41.0 °F 37.9 °F 73% 30.16 in 10.0 mi ENE 10.4 mph - 0.00 in   Overcast
5:56 PM 48.9 °F - 37.9 °F 66% 30.14 in 10.0 mi South 8.1 mph - N/A   Overcast
6:56 PM 46.9 °F - 41.0 °F 80% 30.17 in 10.0 mi SW 9.2 mph - 0.01 in Rain Rain
7:19 PM 44.6 °F 41.4 °F 39.2 °F 81% 30.18 in 10.0 mi East 5.8 mph - 0.01 in Rain Light Rain
7:56 PM 44.1 °F 40.1 °F 41.0 °F 89% 30.17 in 10.0 mi East 6.9 mph - 0.02 in Rain Light Rain
8:42 PM 42.8 °F 38.0 °F 39.2 °F 87% 30.19 in 10.0 mi East 8.1 mph - 0.00 in   Overcast
8:56 PM 42.1 °F 38.4 °F 39.9 °F 92% 30.18 in 10.0 mi ESE 5.8 mph - 0.00 in   Overcast
9:56 PM 43.0 °F 41.3 °F 39.9 °F 89% 30.18 in 10.0 mi ESE 3.5 mph - N/A   Overcast
10:56 PM 43.0 °F 38.2 °F 41.0 °F 93% 30.17 in 10.0 mi SE 8.1 mph - N/A   Overcast
11:56 PM 43.0 °F 37.2 °F 39.9 °F 89% 30.14 in 10.0 mi SSE 10.4 mph - N/A   Overcast